�ϑ��N����,2018/9/27,,,
�ϑ���,�����@��T��,,,
�ϑ��n�_,9,,,
���x�v�ԍ�,31,,,
,,,,
����,�C��,����,����,���l
9:30:00,21.1,8,1,
9:31:00,21.2,8,1,
9:32:00,21.2,8,1,
9:33:00,21.1,0,0,
9:34:00,21.1,0,0,
9:35:00,21.1,0,0,
9:36:00,21.1,8,1,
9:37:00,21.1,8,1,
9:38:00,21.1,8,1,
9:39:00,21.2,8,1,
9:40:00,21.1,8,1,
9:41:00,21.1,0,0,
9:42:00,21.1,0,0,
9:43:00,21,2,1,
9:44:00,21,0,0,
9:45:00,21,4,1,
9:46:00,21,7,2,
9:47:00,20.9,8,1,
9:48:00,20.9,0,0,
9:49:00,20.9,0,0,
9:50:00,20.9,5,1,
9:51:00,20.9,5,1,
9:52:00,20.9,0,0,
9:53:00,20.8,1,1,
9:54:00,20.8,0,0,
9:55:00,20.8,0,0,
9:56:00,20.9,0,0,
9:57:00,20.9,0,0,
9:58:00,20.9,0,0,
9:59:00,20.9,0,0,
10:00:00,21.1,0,0,
10:01:00,21,5,1,
10:02:00,21.1,5,1,
10:03:00,21.1,0,0,
10:04:00,21.1,0,0,
10:05:00,21,0,0,
10:06:00,21.1,5,1,
10:07:00,21.1,5,1,
10:08:00,21.1,5,1,
10:09:00,21.1,0,0,
10:10:00,21.1,0,0,
10:11:00,21.1,0,0,
10:12:00,21.2,5,1,
10:13:00,21.3,0,0,���z���_���班��������悤�ɂȂ��āA�������������Ȃ��Ă����B
10:14:00,21.1,0,0,
10:15:00,21,0,0,
10:16:00,21.1,0,0,
10:17:00,21.1,0,0,���z���_�ɉB�ꂽ�B
10:18:00,21.3,0,0,
10:19:00,21.5,0,0,
10:20:00,21.5,0,0,
10:21:00,21.7,0,0,���z���_����o�Ă��āA�������������Ȃ��Ă����B
10:22:00,22.3,0,0,
10:23:00,22.4,4,1,
10:24:00,22.7,0,0,
10:25:00,23,0,0,
10:26:00,23.1,0,0,
10:27:00,23.2,0,0,
10:28:00,23,5,1,
10:29:00,22.9,0,0,���z���_�ɉB��ď����Â��Ȃ����B
10:30:00,22.9,6,2,
10:31:00,22.9,0,0,
10:32:00,22.5,0,0,
10:33:00,22.4,4,1,
10:34:00,22.4,4,1,
10:35:00,22.2,0,0,
10:36:00,22.2,0,0,���z���_����o�Ă����B
10:37:00,22.1,0,0,
10:38:00,22.1,0,0,
10:39:00,22.4,2,1,
10:40:00,22.6,0,0,���z���_�ɉB�ꂽ�B
10:41:00,22.7,4,1,
10:42:00,22.8,0,0,
10:43:00,22.8,4,2,
10:44:00,22.6,0,0,
10:45:00,22.6,0,0,
10:46:00,22.5,8,1,
10:47:00,22.5,6,1,
10:48:00,22.5,8,2,
10:49:00,22.7,0,0,���z���_����o�n�߂āA�������������Ȃ����B
10:50:00,22.8,0,0,
10:51:00,23,0,0,
10:52:00,23,3,1,
10:53:00,22.9,0,0,
10:54:00,22.9,6,2,
10:55:00,23,4,3,
10:56:00,22.9,0,0,
10:57:00,22.7,0,0,
10:58:00,22.7,0,0,
10:59:00,22.8,4,1,
11:00:00,22.9,0,0,
11:01:00,22.9,4,1,
11:02:00,23.2,0,0,
11:03:00,23.1,0,0,���z���_�ɉB�ꂽ�B
11:04:00,23.1,0,0,
11:05:00,23,0,0,
11:06:00,22.9,0,0,
11:07:00,22.9,2,1,
11:08:00,23.2,0,0,
11:09:00,23.3,0,0,
11:10:00,23.4,2,1,
11:11:00,23.6,2,1,
11:12:00,23.6,4,2,���z���_����o�n�߂āA�������������Ȃ����B
11:13:00,23.7,0,0,
11:14:00,24,0,0,
11:15:00,24.1,2,1,
11:16:00,24.3,8,2,
11:17:00,24.5,0,0,
11:18:00,24.8,0,0,
11:19:00,25.1,2,2,
11:20:00,24.3,0,0,
11:21:00,24.2,0,0,
11:22:00,24.5,0,0,
11:23:00,24.8,2,1,
11:24:00,25.1,4,1,���z���_�ɉB�ꂽ�B
11:25:00,25.2,0,0,
11:26:00,25.3,2,1,
11:27:00,25.5,0,0,���z���_����o�āA�������������Ȃ����B
11:28:00,25.7,0,0,
11:29:00,25.9,0,0,
11:30:00,26,0,0,
